DW8832 Ted Stevens Lena Point CWOPAK US current weather conditions

sailwx.info

Wind from 157

Air temperature 13.9° C
Dewpoint 11.9° C

Last reported at 2020-Aug-09 01:09 UTC.
Time now 2020-Aug-09 01:43 UTC

Location: N 58°23' W 134°46'.
View on Google Maps.

See reports from other nearby stations

  
Tides and Currents Weather Stations Pressure Air Temp Water Temp Dewpoint Dewpoint Depression Visibility Wind Speed Wind Dir Waves Ship Positions
date/time (UTC)wind fromknots sea level pressurealtimeterstation pressurevisibilityair tempwater tempwave heightnotes
2020-Aug-09 01:09 157 13.9
2020-Aug-09 00:58 135 13.9
2020-Aug-09 00:49 157 13.9
2020-Aug-09 00:39 135 13.9
2020-Aug-09 00:28 13.9
2020-Aug-09 00:19 135 13.9
2020-Aug-09 00:09 202 13.9
2020-Aug-08 23:59 045 14.4
2020-Aug-08 23:49 315 14.4
2020-Aug-08 23:39 157 14.4
2020-Aug-08 23:29 157 14.4
2020-Aug-08 23:19 135 13.9
2020-Aug-08 23:10 157 0 gusting 0 13.9
2020-Aug-08 22:59 022 13.9
2020-Aug-08 22:49 13.9
2020-Aug-08 22:39 180 0 gusting 0 13.9
2020-Aug-08 22:29 135 0 gusting 0 13.9
2020-Aug-08 22:19 067 0 gusting 0 13.9
2020-Aug-08 22:09 337 13.9
2020-Aug-08 21:58 135 13.9
2020-Aug-08 21:48 157 13.9
2020-Aug-08 21:38 135 13.9
2020-Aug-08 21:28 157 13.9
2020-Aug-08 21:18 180 0 gusting 0 13.9
2020-Aug-08 21:07 180 0 gusting 0 13.9
2020-Aug-08 20:58 135 13.9
2020-Aug-08 20:48 180 13.9
2020-Aug-08 20:38 135 13.9
2020-Aug-08 20:28 157 1 gusting 3 13.9
2020-Aug-08 20:18 180 0 gusting 0 13.9
2020-Aug-08 20:08 157 0 gusting 0 13.9
2020-Aug-08 19:58 157 0 gusting 2 13.9
2020-Aug-08 19:48 180 13.3
2020-Aug-08 19:36 045 13.9
2020-Aug-08 19:27 090 13.3
2020-Aug-08 19:17 180 0 gusting 0 13.3
2020-Aug-08 19:07 315 13.3
2020-Aug-08 18:57 135 13.3
2020-Aug-08 18:46 157 0 gusting 0 13.3
2020-Aug-08 18:36 045 13.3
2020-Aug-08 18:26 202 0 gusting 0 13.3
2020-Aug-08 18:16 022 13.3
2020-Aug-08 18:07 157 13.3
2020-Aug-08 17:56 112 0 gusting 0 13.3
2020-Aug-08 17:46 135 13.3
2020-Aug-08 17:36 112 13.3
2020-Aug-08 17:26 022 13.3
2020-Aug-08 17:16 180 0 gusting 0 13.3
2020-Aug-08 17:06 157 12.8
2020-Aug-08 16:57 067 2 gusting 2 12.8
2020-Aug-08 16:47 157 0 gusting 1 12.8
2020-Aug-08 16:37 045 0 gusting 0 12.8
2020-Aug-08 16:27 067 12.8
2020-Aug-08 16:17 157 12.8
2020-Aug-08 16:07 112 12.8
2020-Aug-08 15:57 135 12.8
2020-Aug-08 15:46 135 0 gusting 0 12.8
2020-Aug-08 15:36 157 12.2
2020-Aug-08 15:26 180 1 gusting 1 12.8
2020-Aug-08 15:16 157 12.2
2020-Aug-08 15:06 022 0 gusting 0 12.2
2020-Aug-08 14:56 180 12.2
2020-Aug-08 14:46 067 12.2
2020-Aug-08 14:36 112 12.2
2020-Aug-08 14:26 090 0 gusting 0 12.2
2020-Aug-08 14:16 180 0 gusting 3 12.2
2020-Aug-08 14:06 157 12.2
2020-Aug-08 13:55 270 0 gusting 0 12.2
2020-Aug-08 13:45 135 12.2
2020-Aug-08 13:35 157 12.2
2020-Aug-08 13:25 157 12.2
2020-Aug-08 13:15 180 12.2
2020-Aug-08 13:04 157 12.2
2020-Aug-08 12:55 157 12.2
2020-Aug-08 12:44 157 0 gusting 1 12.2
2020-Aug-08 12:34 135 12.8
2020-Aug-08 12:24 112 12.8
2020-Aug-08 12:14 135 12.8
2020-Aug-08 12:04 157 0 gusting 0 12.8
2020-Aug-08 11:54 180 1 gusting 2 12.8
2020-Aug-08 11:44 157 0 gusting 0 12.8
2020-Aug-08 11:34 157 0 gusting 3 12.8
2020-Aug-08 11:24 157 1 gusting 2 12.8
2020-Aug-08 11:14 157 0 gusting 0 12.8
2020-Aug-08 11:04 067 12.8
2020-Aug-08 10:54 112 12.8
2020-Aug-08 10:44 135 0 gusting 2 12.8
2020-Aug-08 10:34 157 2 gusting 2 12.8
2020-Aug-08 10:23 135 12.8
2020-Aug-08 10:13 180 0 gusting 3 12.8
2020-Aug-08 10:03 157 0 gusting 2 12.8
2020-Aug-08 09:52 157 12.8
2020-Aug-08 09:42 157 12.8
2020-Aug-08 09:32 157 2 gusting 2 12.8
2020-Aug-08 09:22 180 2 gusting 2 12.8
2020-Aug-08 09:13 045 12.8
2020-Aug-08 09:02 180 12.8
2020-Aug-08 08:52 045 12.8
2020-Aug-08 08:43 157 0 gusting 0 12.8
2020-Aug-08 08:33 067 12.8
2020-Aug-08 08:23 180 12.8
2020-Aug-08 08:13 157 12.8
2020-Aug-08 08:03 090 12.8
2020-Aug-08 07:53 112 0 gusting 0 12.8
2020-Aug-08 07:43 112 12.8
2020-Aug-08 07:33 157 12.8
2020-Aug-08 07:23 135 12.8
2020-Aug-08 07:12 157 1 gusting 1 12.8
2020-Aug-08 07:02 157 12.8
2020-Aug-08 06:52 180 12.8
2020-Aug-08 06:42 157 0 gusting 0 12.8
2020-Aug-08 06:32 157 12.8
2020-Aug-08 06:21 157 12.8
2020-Aug-08 06:11 157 0 gusting 0 12.8
2020-Aug-08 06:01 090 12.8
2020-Aug-08 05:50 157 12.8
2020-Aug-08 05:40 157 12.8
2020-Aug-08 05:30 157 12.8
2020-Aug-08 05:20 337 12.8
2020-Aug-08 05:09 112 12.8
2020-Aug-08 04:59 157 12.8
2020-Aug-08 04:49 157 12.8
2020-Aug-08 04:39 135 0 gusting 0 12.8
2020-Aug-08 04:29 157 0 gusting 0 12.8
2020-Aug-08 04:19 157 0 gusting 0 12.8
2020-Aug-08 04:08 090 0 gusting 2 13.3
2020-Aug-08 03:58 157 13.3
2020-Aug-08 03:49 157 13.3
2020-Aug-08 03:38 022 13.3
2020-Aug-08 03:28 022 13.3
2020-Aug-08 03:18 157 13.3
2020-Aug-08 03:08 157 0 gusting 0 13.3
2020-Aug-08 02:58 045 13.3
2020-Aug-08 02:48 045 13.9
2020-Aug-08 02:37 090 13.9
2020-Aug-08 02:27 135 13.9
2020-Aug-08 02:17 022 13.9
2020-Aug-08 02:07 292 13.9
2020-Aug-08 01:57 157 13.9
2020-Aug-08 01:47 112 13.9
2020-Aug-08 01:37 067 14.4
2020-Aug-08 01:26 157 14.4
2020-Aug-08 01:16 157 14.4
2020-Aug-08 01:05 202 14.4
2020-Aug-08 00:55 157 14.4
2020-Aug-08 00:44 157 14.4
2020-Aug-08 00:34 14.4
2020-Aug-08 00:24 090 15.0
2020-Aug-08 00:14 135 15.0
2020-Aug-08 00:04 157 15.0
2020-Aug-07 23:54 157 15.6
2020-Aug-07 23:44 157 15.6
2020-Aug-07 23:33 180 15.6
2020-Aug-07 23:24 15.6
2020-Aug-07 23:14 157 15.6
2020-Aug-07 23:04 180 15.6
2020-Aug-07 22:54 135 15.0
2020-Aug-07 22:44 157 15.0
2020-Aug-07 22:34 157 0 gusting 0 14.4
2020-Aug-07 22:24 112 14.4
2020-Aug-07 22:14 157 14.4
2020-Aug-07 22:04 157 14.4
2020-Aug-07 21:54 157 0 gusting 0 14.4
2020-Aug-07 21:44 157 13.9
2020-Aug-07 21:34 180 13.9
2020-Aug-07 21:25 135 13.9
2020-Aug-07 21:15 157 13.9
2020-Aug-07 21:04 180 13.9
2020-Aug-07 20:54 067 13.9
2020-Aug-07 20:43 180 13.3
2020-Aug-07 20:33 157 0 gusting 0 13.3
2020-Aug-07 20:23 157 13.9
2020-Aug-07 20:14 135 13.9
2020-Aug-07 20:03 157 13.9
2020-Aug-07 19:53 157 13.9
2020-Aug-07 19:42 180 1 gusting 1 13.9
2020-Aug-07 19:32 135 13.3
2020-Aug-07 19:22 112 13.3
2020-Aug-07 19:12 157 13.3
2020-Aug-07 19:02 135 1 gusting 1 13.3
2020-Aug-07 18:52 180 0 gusting 2 13.3
2020-Aug-07 18:42 157 13.3
2020-Aug-07 18:32 157 13.3
2020-Aug-07 18:22 180 13.3
2020-Aug-07 18:12 157 12.8
2020-Aug-07 18:03 157 0 gusting 0 12.8
2020-Aug-07 17:52 067 12.8
2020-Aug-07 17:42 135 12.8
2020-Aug-07 17:32 157 2 gusting 2 12.2
2020-Aug-07 17:22 045 12.2
2020-Aug-07 17:11 180 0 gusting 0 12.2
2020-Aug-07 17:01 157 0 gusting 0 12.2
2020-Aug-07 16:51 157 12.2
2020-Aug-07 16:41 315 12.2
2020-Aug-07 16:30 157 12.2
2020-Aug-07 16:20 315 12.2
2020-Aug-07 16:10 157 12.2
2020-Aug-07 16:00 180 0 gusting 0 12.2
2020-Aug-07 15:50 180 12.2
2020-Aug-07 15:40 202 12.2
2020-Aug-07 15:30 225 12.2
2020-Aug-07 15:19 135 12.2
2020-Aug-07 15:09 157 12.2
2020-Aug-07 14:59 225 12.2
2020-Aug-07 14:49 135 12.2
2020-Aug-07 14:39 157 12.2
2020-Aug-07 14:29 180 0 gusting 0 12.2
2020-Aug-07 14:19 022 12.2
2020-Aug-07 14:09 135 12.2
2020-Aug-07 13:59 157 12.2
2020-Aug-07 13:48 135 0 gusting 0 12.2
2020-Aug-07 13:38 202 12.2
2020-Aug-07 13:28 067 2 gusting 2 12.2
2020-Aug-07 13:18 157 12.2
2020-Aug-07 13:08 135 12.2
2020-Aug-07 12:58 157 12.2
2020-Aug-07 12:48 135 12.2
2020-Aug-07 12:38 135 12.8
2020-Aug-07 12:28 180 0 gusting 0 12.8
2020-Aug-07 12:19 180 0 gusting 0 12.8
2020-Aug-07 12:09 112 12.8
2020-Aug-07 11:59 157 12.8
2020-Aug-07 11:48 045 12.8
2020-Aug-07 11:38 157 12.8
2020-Aug-07 11:29 12.8
2020-Aug-07 11:18 157 12.8
2020-Aug-07 11:08 202 12.8
2020-Aug-07 10:58 157 12.8
2020-Aug-07 10:48 135 0 gusting 0 12.8
2020-Aug-07 10:38 135 12.8
2020-Aug-07 10:28 135 0 gusting 0 12.8
2020-Aug-07 10:18 135 13.3
2020-Aug-07 10:08 157 13.3
2020-Aug-07 09:58 157 13.3
2020-Aug-07 09:47 180 0 gusting 0 13.3
2020-Aug-07 09:37 225 1 gusting 1 13.3
2020-Aug-07 09:27 112 0 gusting 0 13.3
2020-Aug-07 09:17 157 0 gusting 0 13.3
2020-Aug-07 09:07 202 13.3
2020-Aug-07 08:57 180 0 gusting 0 13.3
2020-Aug-07 08:47 022 13.3
2020-Aug-07 08:37 157 0 gusting 0 13.3
2020-Aug-07 08:27 157 0 gusting 0 13.3
2020-Aug-07 08:17 157 13.3
2020-Aug-07 08:07 180 0 gusting 1 13.3
2020-Aug-07 07:57 180 13.3
2020-Aug-07 07:47 090 0 gusting 1 13.3
2020-Aug-07 07:37 180 13.3
2020-Aug-07 07:27 157 13.3
2020-Aug-07 07:17 135 13.3
2020-Aug-07 07:07 157 13.3
2020-Aug-07 06:56 135 0 gusting 0 13.3
2020-Aug-07 06:46 180 0 gusting 0 13.3
2020-Aug-07 06:36 247 13.3
2020-Aug-07 06:26 247 13.3
2020-Aug-07 06:15 180 3 gusting 5 13.3
2020-Aug-07 06:05 180 5 gusting 5 13.3
2020-Aug-07 05:55 180 1 gusting 3 13.3
2020-Aug-07 05:46 180 13.3
2020-Aug-07 05:35 157 2 gusting 2 13.3
2020-Aug-07 05:26 045 0 gusting 3 13.3
2020-Aug-07 05:15 067 13.3
2020-Aug-07 05:05 067 13.3
2020-Aug-07 04:56 157 0 gusting 2 13.3
2020-Aug-07 04:45 180 2 gusting 2 13.9
2020-Aug-07 04:35 202 13.9
2020-Aug-07 04:25 157 13.9
2020-Aug-07 04:15 135 0 gusting 0 13.9
2020-Aug-07 04:05 157 13.9
2020-Aug-07 03:55 157 0 gusting 0 13.9
2020-Aug-07 03:44 180 13.9
2020-Aug-07 03:34 157 2 gusting 2 13.9
2020-Aug-07 03:25 180 14.4
2020-Aug-07 03:14 180 14.4
2020-Aug-07 03:05 202 14.4
2020-Aug-07 02:55 180 14.4
2020-Aug-07 02:45 157 14.4
2020-Aug-07 02:35 157 14.4
2020-Aug-07 02:25 157 14.4
2020-Aug-07 02:15 157 15.0
2020-Aug-07 02:04 157 15.0
2020-Aug-07 01:54 157 15.0
2020-Aug-07 01:44 180 15.6
2020-Aug-07 01:34 157 15.6
2020-Aug-07 01:24 180 15.6
2020-Aug-07 01:14 180 15.6
2020-Aug-07 01:03 180 15.6